Stündliche Wetter Bolshie Ledinki

Heute, 17 Juni, Donnerstag

Zeit Temperatur Niederschläge Wind Luftdruck Luftfeuchtigkeit
00:00 +12°C° 0 mm 1 m/S 747 mmHg 74%
01:00 +12°C° 0 mm 1 m/S 748 mmHg 75%
02:00 +10°C° 0 mm 2 m/S 748 mmHg 76%
03:00 +12°C° 0 mm 1 m/S 748 mmHg 75%
04:00 +13°C° 0 mm 1 m/S 749 mmHg 75%
05:00 +14°C° 0 mm 1 m/S 749 mmHg 74%
06:00 +15°C° 0 mm 1 m/S 749 mmHg 67%
07:00 +18°C° 0 mm 1 m/S 749 mmHg 60%
08:00 +20°C° 0 mm 1 m/S 750 mmHg 53%
09:00 +20°C° 0 mm 0 m/S 750 mmHg 48%
10:00 +21°C° 0 mm 0 m/S 750 mmHg 44%
11:00 +22°C° 0 mm 0 m/S 750 mmHg 40%
12:00 +23°C° 0 mm 0 m/S 750 mmHg 39%
13:00 +25°C° 0 mm 1 m/S 750 mmHg 38%
14:00 +26°C° 0 mm 1 m/S 750 mmHg 37%
15:00 +25°C° 0 mm 1 m/S 750 mmHg 40%
16:00 +25°C° 0 mm 1 m/S 750 mmHg 43%
17:00 +25°C° 0 mm 1 m/S 750 mmHg 45%
18:00 +23°C° 0 mm 1 m/S 750 mmHg 54%
19:00 +21°C° 0 mm 1 m/S 750 mmHg 63%
20:00 +19°C° 0 mm 1 m/S 750 mmHg 72%
21:00 +18°C° 0 mm 1 m/S 750 mmHg 74%
22:00 +16°C° 0 mm 1 m/S 751 mmHg 76%
23:00 +15°C° 0 mm 1 m/S 751 mmHg 79%

Morgen, 18 Juni, Freitag

Zeit Temperatur Niederschläge Wind Luftdruck Luftfeuchtigkeit
00:00 +14°C° 0 mm 1 m/S 751 mmHg 80%
01:00 +14°C° 0 mm 1 m/S 751 mmHg 81%
02:00 +14°C° 0 mm 1 m/S 751 mmHg 83%
03:00 +14°C° 0 mm 1 m/S 752 mmHg 81%
04:00 +15°C° 0 mm 1 m/S 752 mmHg 80%
05:00 +16°C° 0 mm 1 m/S 752 mmHg 78%
06:00 +19°C° 0 mm 1 m/S 752 mmHg 71%
07:00 +21°C° 0 mm 1 m/S 752 mmHg 63%
08:00 +23°C° 0 mm 1 m/S 752 mmHg 56%
09:00 +24°C° 0 mm 2 m/S 752 mmHg 52%
10:00 +25°C° 0 mm 2 m/S 752 mmHg 48%
11:00 +26°C° 0 mm 2 m/S 752 mmHg 44%
12:00 +27°C° 0 mm 2 m/S 752 mmHg 43%
13:00 +27°C° 0 mm 2 m/S 751 mmHg 43%
14:00 +27°C° 0 mm 3 m/S 751 mmHg 43%
15:00 +27°C° 0 mm 3 m/S 751 mmHg 47%
16:00 +26°C° 0 mm 3 m/S 751 mmHg 52%
17:00 +26°C° 0 mm 3 m/S 750 mmHg 56%
18:00 +24°C° 0 mm 3 m/S 750 mmHg 64%
19:00 +21°C° 0 mm 2 m/S 750 mmHg 72%
20:00 +19°C° 0 mm 2 m/S 750 mmHg 80%
21:00 +18°C° 0 mm 2 m/S 750 mmHg 80%
22:00 +18°C° 0 mm 2 m/S 751 mmHg 81%
23:00 +17°C° 0 mm 2 m/S 751 mmHg 81%

übermorgen, 19 Juni, Samstag

Zeit Temperatur Niederschläge Wind Luftdruck Luftfeuchtigkeit
00:00 +16°C° 0 mm 2 m/S 751 mmHg 84%
01:00 +16°C° 0 mm 2 m/S 751 mmHg 86%
02:00 +15°C° 0 mm 2 m/S 751 mmHg 88%
03:00 +16°C° 0 mm 2 m/S 751 mmHg 87%
04:00 +16°C° 0 mm 2 m/S 751 mmHg 85%
05:00 +17°C° 0 mm 2 m/S 751 mmHg 84%
06:00 +19°C° 0 mm 2 m/S 751 mmHg 76%
07:00 +21°C° 0 mm 2 m/S 751 mmHg 69%
08:00 +22°C° 0 mm 3 m/S 751 mmHg 62%
09:00 +25°C° 0 mm 3 m/S 751 mmHg 58%
10:00 +26°C° 0 mm 3 m/S 751 mmHg 54%
11:00 +27°C° 0 mm 3 m/S 751 mmHg 51%
12:00 +27°C° 0 mm 3 m/S 750 mmHg 50%
13:00 +28°C° 0 mm 3 m/S 750 mmHg 49%
14:00 +28°C° 0 mm 3 m/S 750 mmHg 47%
15:00 +28°C° 0 mm 3 m/S 750 mmHg 51%
16:00 +27°C° 0 mm 3 m/S 749 mmHg 54%
17:00 +27°C° 0 mm 3 m/S 749 mmHg 57%
18:00 +25°C° 0 mm 3 m/S 749 mmHg 65%
19:00 +23°C° 0 mm 2 m/S 749 mmHg 73%
20:00 +20°C° 0 mm 2 m/S 749 mmHg 81%
21:00 +19°C° 0 mm 2 m/S 749 mmHg 82%
22:00 +18°C° 0 mm 2 m/S 749 mmHg 83%
23:00 +17°C° 0 mm 2 m/S 749 mmHg 84%

20 Juni, Sonntag

Zeit Temperatur Niederschläge Wind Luftdruck Luftfeuchtigkeit
00:00 +17°C° 0 mm 2 m/S 749 mmHg 87%
01:00 +16°C° 0 mm 2 m/S 749 mmHg 89%
02:00 +15°C° 0 mm 2 m/S 749 mmHg 91%
03:00 +16°C° 0 mm 2 m/S 749 mmHg 89%
04:00 +17°C° 0 mm 2 m/S 750 mmHg 87%
05:00 +17°C° 0 mm 2 m/S 750 mmHg 85%
06:00 +19°C° 0 mm 2 m/S 749 mmHg 78%
07:00 +21°C° 0 mm 2 m/S 749 mmHg 70%
08:00 +24°C° 0 mm 2 m/S 749 mmHg 63%
09:00 +25°C° 0 mm 2 m/S 749 mmHg 59%
10:00 +26°C° 0 mm 2 m/S 749 mmHg 54%
11:00 +28°C° 0 mm 3 m/S 749 mmHg 50%
12:00 +28°C° 0 mm 3 m/S 749 mmHg 49%
13:00 +28°C° 0 mm 3 m/S 748 mmHg 48%
14:00 +29°C° 0 mm 3 m/S 748 mmHg 47%
15:00 +29°C° 0 mm 3 m/S 748 mmHg 51%
16:00 +28°C° 0 mm 3 m/S 748 mmHg 54%
17:00 +28°C° 0 mm 2 m/S 748 mmHg 58%
18:00 +26°C° 0 mm 2 m/S 747 mmHg 66%
19:00 +25°C° 0 mm 2 m/S 747 mmHg 74%
20:00 +23°C° 0 mm 2 m/S 747 mmHg 83%
21:00 +21°C° 0 mm 2 m/S 747 mmHg 85%
22:00 +20°C° 0 mm 2 m/S 747 mmHg 87%
23:00 +20°C° 0 mm 2 m/S 747 mmHg 90%

21 Juni, Montag

Zeit Temperatur Niederschläge Wind Luftdruck Luftfeuchtigkeit
00:00 +19°C° 0 mm 2 m/S 747 mmHg 91%
01:00 +19°C° 0 mm 2 m/S 747 mmHg 93%
02:00 +18°C° 0 mm 2 m/S 747 mmHg 95%
03:00 +19°C° 0 mm 2 m/S 747 mmHg 93%
04:00 +19°C° 0 mm 2 m/S 748 mmHg 91%
05:00 +21°C° 0 mm 1 m/S 748 mmHg 89%
06:00 +23°C° 0 mm 1 m/S 748 mmHg 82%
07:00 +24°C° 0 mm 1 m/S 748 mmHg 75%
08:00 +26°C° 0 mm 1 m/S 748 mmHg 69%
09:00 +27°C° 0 mm 2 m/S 748 mmHg 64%
10:00 +28°C° 0 mm 2 m/S 748 mmHg 59%
11:00 +30°C° 0 mm 2 m/S 748 mmHg 54%
12:00 +30°C° 0 mm 2 m/S 747 mmHg 52%
13:00 +31°C° 0 mm 2 m/S 747 mmHg 50%
14:00 +31°C° 0 mm 2 m/S 747 mmHg 48%
15:00 +31°C° 0 mm 2 m/S 747 mmHg 50%
16:00 +30°C° 0 mm 2 m/S 747 mmHg 53%
17:00 +30°C° 0 mm 2 m/S 747 mmHg 56%
18:00 +28°C° 0 mm 2 m/S 747 mmHg 64%
19:00 +26°C° 0 mm 2 m/S 747 mmHg 71%
20:00 +24°C° 0 mm 1 m/S 747 mmHg 79%
21:00 +23°C° 0.1 mm 1 m/S 747 mmHg 80%
22:00 +21°C° 0.1 mm 2 m/S 747 mmHg 82%
23:00 +20°C° 0.1 mm 2 m/S 747 mmHg 83%

22 Juni, Dienstag

Zeit Temperatur Niederschläge Wind Luftdruck Luftfeuchtigkeit
00:00 +21°C° 0 mm 1 m/S 747 mmHg 85%
01:00 +20°C° 0 mm 1 m/S 747 mmHg 87%
02:00 +20°C° 0 mm 1 m/S 748 mmHg 88%
03:00 +20°C° 0 mm 1 m/S 748 mmHg 87%
04:00 +21°C° 0 mm 1 m/S 748 mmHg 85%
05:00 +21°C° 0 mm 1 m/S 748 mmHg 84%
06:00 +23°C° 0 mm 1 m/S 748 mmHg 76%
07:00 +25°C° 0 mm 1 m/S 748 mmHg 69%
08:00 +27°C° 0 mm 1 m/S 748 mmHg 61%
09:00 +28°C° 0 mm 1 m/S 748 mmHg 56%
10:00 +30°C° 0 mm 1 m/S 748 mmHg 51%
11:00 +31°C° 0 mm 2 m/S 748 mmHg 47%
12:00 +31°C° 0 mm 2 m/S 748 mmHg 45%
13:00 +32°C° 0 mm 2 m/S 748 mmHg 43%
14:00 +32°C° 0 mm 2 m/S 748 mmHg 41%
15:00 +32°C° 0 mm 2 m/S 748 mmHg 45%
16:00 +32°C° 0 mm 1 m/S 748 mmHg 48%
17:00 +31°C° 0 mm 1 m/S 747 mmHg 52%
18:00 +29°C° 0 mm 1 m/S 747 mmHg 58%
19:00 +27°C° 0 mm 1 m/S 747 mmHg 65%
20:00 +23°C° 0 mm 0 m/S 747 mmHg 72%
21:00 +24°C° 0 mm 1 m/S 747 mmHg 74%
22:00 +23°C° 0 mm 1 m/S 748 mmHg 76%
23:00 +23°C° 0 mm 1 m/S 748 mmHg 77%
Mehr zeigen

Wir brauchen deine Erlaubnis

Meteoprog und unser Service Anbieter werden persönliche Daten aufbewahren, so wie Cookies, Geräte Bezeichnung oder ähnliche Technologien von deinem Gerät und Prozess, so wie Persönliche Daten Inhalte und Werbungen, genauso wie social Media und den Verkehr zu analysieren.

  • Aufbewahrung und/oder Zugang zu deiner Geräte Informationen.

    Cookies, Geräte Bezeichnung oder andere Informationen, können aufbewahrt oder Zugang zu deinem Gerät erhalten, für den Grund, der oben angegeben wird.

  • Personalisierte Werbung und Inhalte, Messungen, Einblick in das Publikum und Produkt Entwicklung.

    Werbungen und Inhalte können personalisiert werden, basierend auf ein Profil. Mehr Daten können besser personalisierte Werbungen und Inhalte hinzufügen. Werbung und Inhalte können gezeigt und gemessen werden. Einblicke über das Publikum, welche die Werbung gesehen haben und den Inhalt, können abgeleitet werden. So wie Daten können genutzt werden, um es zu verbessern oder die Benutzer Erfahrung zu verbessern das System und die Software.

Wenn du “Ich stimme zu” klickst, erlaubst du uns, die Cookies zu benutzen die Geräte Bezeichnung, den Web oder ähnliche Technologien zu benutzen. Deine Settings, können in deinem Gerät bei deinem Browser geändert werden.

Für den bestimmten Zweck, berechtigten Interessen beruhen darauf, mehr als auf den Inhalt. Du kannst mehr darüber in unseren Privaten und Cookie Politik lesen.